Location: *
(1.3500°S, 147.5000°W)
Time: 19:44:48
(UTC+00:00)

ATLAS 3B CENTAUR R/B - Pass Details

Date: 07 April 2020
Orbit: 220 x 4398 km, 28.1° (Epoch: 28 May)

Event Time Altitude Azimuth Distance (km) Brightness Sun altitude
Rises 05:40:09 0° 304° (NW) 4,320 6.8 -27.0°
Reaches altitude 10° 05:44:13 10° 307° (NW) 2,652 5.5 -28.0°
Enters shadow 05:48:15 35° 324° (NW) 997 2.9 -29.0°
